Location: Unadilla
(32.2616°N, 83.7366°W)
Time: 23:39:29
(UTC+00:00)

Daily predictions for brighter satellites

Satellite Brightness Start Highest point End
(mag) Time Altitude Azimuth Time Altitude Azimuth Time Altitude Azimuth
Meteor 2-6 Rocket 4.2 23:43:16 10° N 23:48:57 70° E 23:54:25 10° SSE
Gbstr 26 Del rocket 3.6 23:45:44 10° WSW 23:49:42 56° NW 23:54:26 10° NE
COSMO-SKYMED 1 3.1 23:48:02 10° N 23:52:20 64° WNW 23:56:36 10° SSW
CZ-4B R/B 2.0 23:50:42 10° N 23:53:40 53° WNW 23:56:38 10° SSW
Sich 1 3.6 23:51:14 10° SSE 23:55:11 35° E 23:59:10 10° NNE
